Dewpoint
37 38 38 36 36 34 32 32 31 33 32 32 31 30 29 28 29 29 29 29 29 28 29 29 29 30 30 30 31 31 31 31 31 31 33 33 32 33 36 46 47 47 49
36 36 35 34 33 32 32 32 33 32 32 32 30 28 27 27 27 27 27 26 26 26 26 27 27 25 27 29 29 29 30 30 31 30 32 33 31 30 30 35 44 46 45
31 33 32 32 32 31 33 33 32 32 31 29 28 28 27 27 26 26 25 25 25 25 25 26 26 27 27 28 28 29 29 28 30 31 31 32 31 32 31 31 33 42 45
29 29 32 30 32 33 33 32 32 31 30 29 28 27 27 25 23 23 22 23 24 24 27 28 28 28 28 28 27 28 28 29 30 32 31 31 31 30 31 30 30 38 39
29 29 32 36 36 33 32 32 31 31 28 28 25 25 26 24 21 23 24 25 25 25 26 26 26 27 29 29 27 27 27 27 29 31 31 32 30 30 29 31 31 33 37
32 38 39 36 33 31 31 31 31 29 27 25 25 25 25 21 27 30 30 26 25 25 26 26 25 27 27 28 28 29 28 27 27 29 30 32 32 32 31 31 31 31 34
39 37 35 35 30 30 29 27 28 26 26 25 24 24 24 24 29 30 29 26 26 25 25 25 25 24 27 26 28 29 29 30 28 27 24 25 28 30 33 32 31 32 34
36 36 34 29 28 27 28 26 25 24 24 23 24 24 24 24 28 28 28 26 26 27 27 26 26 26 27 27 27 28 30 30 29 28 28 27 26 27 29 32 34 33 34
32 27 25 26 26 27 25 23 24 23 22 23 23 25 24 25 28 28 27 27 29 28 28 28 27 27 28 29 29 30 29 29 30 33 32 31 30 30 29 29 30 32 32
27 25 24 26 25 23 23 23 22 23 20 25 24 26 27 25 27 29 29 30 30 29 28 30 30 31 31 30 29 29 28 28 29 28 28 30 32 32 32 32 28 28 31
24 24 24 24 22 22 23 22 20 21 24 25 26 26 26 26 27 29 29 29 29 28 28 27 27 28 29 31 32 30 29 28 28 27 28 28 28 32 32 32 30 29 31
23 24 24 23 22 20 22 20 21 22 24 23 24 24 25 25 27 26 28 29 30 28 28 29 29 30 30 31 31 31 31 31 31 30 30 28 30 30 30 32 31 30 34
24 24 24 24 23 20 19 21 22 21 23 23 25 22 23 25 25 25 26 28 30 28 28 29 30 30 29 29 30 30 28 28 27 28 28 29 29 30 33 32 33 34 34
24 25 24 24 23 21 20 21 21 22 23 24 22 22 23 24 23 24 26 29 30 29 29 29 28 28 29 29 30 31 30 30 27 27 29 29 32 32 32 33 31 31 29
25 25 25 25 23 21 22 22 23 24 24 23 23 25 25 23 24 28 30 29 29 29 29 27 27 26 25 26 27 31 28 28 28 30 29 29 30 31 32 32 30 29 27
25 26 26 24 23 23 22 22 24 25 25 26 25 27 26 26 28 30 30 32 30 29 27 25 23 23 25 25 26 29 28 27 27 26 27 30 31 32 31 30 30 28 27
26 26 24 23 23 22 22 21 20 23 25 25 25 26 25 27 29 29 29 30 31 27 24 22 23 23 23 24 25 27 27 31 30 29 28 31 29 28 29 29 29 28 27
27 24 25 23 23 23 22 22 22 21 21 22 25 23 24 27 28 27 27 26 24 25 26 24 23 22 24 23 24 25 27 28 28 29 31 31 27 26 27 28 26 26 25
26 25 24 24 24 23 23 22 22 21 22 22 23 21 22 26 27 25 25 23 22 23 24 23 25 25 23 24 24 24 25 26 27 28 28 28 29 28 28 28 25 25 25
25 22 20 23 23 23 22 21 20 21 22 22 21 20 21 22 21 20 21 20 20 20 22 23 24 25 25 24 23 23 23 24 26 25 25 25 27 27 26 25 24 23 24
25 24 21 24 23 22 22 20 21 21 22 22 22 22 21 20 20 19 19 19 19 19 19 20 22 23 24 25 25 23 22 22 23 24 24 24 22 21 23 21 20 19 19
26 25 24 23 24 23 21 22 21 20 20 21 21 21 21 20 19 18 18 18 18 19 19 18 18 19 20 22 24 23 23 23 23 23 23 23 22 21 21 21 20 20 20
27 26 25 23 23 19 22 21 20 21 20 21 21 19 19 19 18 17 17 18 17 16 17 17 15 15 16 18 19 21 24 24 24 25 23 22 21 21 21 20 19 19 19
27 25 24 23 23 22 23 19 19 18 20 19 19 19 18 18 17 16 17 17 17 16 16 14 14 12 12 13 14 16 19 24 25 25 25 23 22 21 20 20 19 20 19
26 25 25 24 23 21 21 19 21 19 20 19 18 18 18 17 16 16 16 17 16 15 13 12 11 9 8 8 9 11 14 16 21 23 22 22 21 21 20 18 18 18 18
27 26 24 24 23 21 19 18 18 19 19 19 18 18 17 17 16 16 16 15 14 13 13 12 10 8 7 7 8 10 10 12 15 16 19 18 15 15 13 11 9 9 11
Lifted_Index
6 6 6 6 7 8 8 9 9 9 9 9 9 9 10 10 10 11 11 11 11 11 11 11 11 11 11 10 10 10 9 9 9 10 10 10 10 10 10 9 8 7 7
7 7 7 7 8 9 9 9 9 9 9 9 9 9 10 10 11 11 11 11 12 12 12 11 11 11 10 10 10 9 9 9 9 9 10 10 10 11 11 10 9 9 8
9 9 9 9 9 10 10 9 9 9 9 9 10 10 10 11 11 11 12 12 12 12 11 11 11 10 10 10 9 9 9 9 8 9 9 9 10 10 11 11 11 10 10
10 10 10 10 10 9 9 9 9 9 9 10 10 11 11 11 11 11 11 11 11 11 11 10 10 9 9 9 9 8 8 8 8 7 7 8 8 8 9 10 10 10 10
10 10 10 9 9 9 8 9 9 9 10 10 11 11 11 11 11 11 11 11 10 10 10 9 9 9 9 9 9 9 8 8 7 7 6 6 6 6 6 6 7 8 9
9 9 8 8 8 8 8 9 9 10 10 11 11 11 11 11 10 10 10 10 10 10 9 9 9 9 10 10 10 10 9 9 9 8 7 6 5 4 4 3 4 5 7
8 8 8 8 8 8 9 9 10 10 11 11 11 11 11 10 10 9 9 9 10 10 10 10 10 10 11 11 11 11 11 11 10 10 9 8 7 5 4 3 3 3 4
7 7 8 8 8 9 9 10 10 11 11 11 11 11 10 10 9 9 10 10 10 11 11 11 11 11 11 11 11 11 11 11 11 11 10 9 9 7 6 4 3 2 2
7 8 8 8 9 9 10 11 11 11 11 11 11 10 10 10 10 10 11 11 11 11 11 11 11 11 11 11 11 11 11 11 11 10 10 10 9 9 8 6 4 3 2
8 8 8 9 9 10 11 11 11 11 11 11 10 10 10 10 11 11 11 11 12 12 12 12 12 12 12 11 11 11 11 11 10 10 10 10 10 9 9 7 6 4 3
8 8 9 9 10 10 11 11 11 11 11 10 10 10 10 11 12 12 12 12 12 12 12 12 12 12 12 11 11 11 10 10 10 10 10 10 10 9 9 8 7 5 4
9 9 9 10 10 10 11 11 11 11 11 10 9 10 11 12 12 12 12 12 13 13 13 12 12 12 11 11 11 11 10 10 10 10 10 10 10 9 9 8 7 6 4
9 9 10 10 10 10 11 11 11 11 10 9 9 10 11 12 12 12 12 12 12 13 13 12 12 11 11 11 10 10 10 9 9 9 9 9 9 9 8 7 6 5 4
10 10 10 10 10 10 11 11 11 11 10 10 10 11 11 12 12 12 12 12 12 12 13 12 12 11 11 10 10 9 9 9 8 8 8 8 8 7 7 6 6 5 4
10 10 10 10 10 10 11 11 11 10 10 11 11 12 12 11 12 12 12 12 12 12 12 12 12 11 11 10 9 9 9 8 8 8 7 7 6 6 5 5 5 4 3
10 10 10 10 10 10 10 10 10 10 11 11 12 12 12 12 12 12 11 11 12 12 12 12 12 12 11 10 9 9 9 9 8 7 6 5 4 4 4 4 4 3 3
10 10 10 10 10 10 9 9 9 10 10 11 12 12 12 12 11 11 11 11 11 12 12 12 12 13 12 11 10 9 9 8 8 7 5 4 3 3 3 3 3 3 3
10 10 9 9 9 9 9 9 9 10 10 11 12 12 12 11 11 11 10 10 10 11 12 12 13 13 13 12 11 10 9 8 7 6 5 4 4 3 3 3 3 3 3
9 9 9 8 8 8 8 9 10 10 11 11 12 12 11 11 11 10 10 10 9 10 11 12 13 14 14 13 12 11 10 9 8 7 6 6 5 5 4 4 3 3 3
9 8 8 7 7 7 8 9 10 11 11 12 12 12 11 11 10 10 10 9 9 10 11 12 13 13 14 14 13 12 11 10 10 9 8 8 7 7 6 5 5 4 4
7 7 6 6 6 7 8 10 11 11 12 12 12 12 12 11 10 10 10 10 10 10 11 11 12 13 14 14 14 13 12 12 11 11 11 10 10 9 9 8 7 6 6
5 5 5 5 6 7 9 10 11 12 12 12 13 13 12 12 11 11 11 11 11 11 11 12 12 13 13 14 14 14 13 13 13 12 12 12 12 11 11 10 9 9 8
4 4 4 5 6 8 9 10 11 12 13 13 13 13 13 12 12 12 12 12 12 12 12 12 12 13 13 14 14 14 14 13 13 13 12 12 12 12 12 11 11 10 10
4 4 4 5 6 8 9 11 12 12 13 13 13 14 13 13 13 12 12 13 13 13 13 13 13 13 14 14 14 14 14 14 14 14 13 13 12 12 12 12 12 12 12
4 4 4 5 6 8 9 10 11 12 13 14 14 14 14 14 14 13 13 13 13 14 14 14 15 15 15 15 15 15 15 15 15 15 14 14 13 13 13 12 12 12 12
4 4 5 5 6 8 9 10 11 12 13 14 14 14 15 14 14 14 14 14 14 14 15 15 16 16 16 16 16 16 16 16 16 15 15 15 14 13 13 13 13 13 13